Location: Unspecified
(39.0670°S, 0.0000°E)
Time: 10:38:24
(UTC+00:00)

ISS - Visible Passes

Search period start: 18 June 2019 00:00
Search period end: 28 June 2019 00:00
Orbit: 408 x 418 km, 51.6° (Epoch: 18 June)

Date Brightness Start Highest point End Pass type
(mag) Time Alt. Az. Time Alt. Az. Time Alt. Az.
21 Jun -2.2 18:45:48 10° NNW 18:47:46 30° NNW 18:47:46 30° NNW visible
22 Jun -2.4 17:56:46 10° NNW 17:59:39 26° NE 18:00:35 23° ENE visible
22 Jun -0.3 19:33:05 10° W 19:33:26 12° W 19:33:26 12° W visible
23 Jun -1.6 17:08:19 10° NNE 17:10:17 15° NE 17:12:15 10° E visible
23 Jun -3.0 18:43:14 10° WNW 18:46:09 52° WSW 18:46:09 52° WSW visible
24 Jun -3.8 17:53:37 10° NW 17:57:01 78° NE 17:58:49 26° ESE visible
24 Jun -0.3 19:31:30 10° WSW 19:31:39 11° WSW 19:31:39 11° WSW visible
25 Jun -2.0 18:41:19 10° W 18:44:13 26° SSW 18:44:13 26° SSW visible
26 Jun -2.7 17:51:18 10° WNW 17:54:32 40° SSW 17:56:44 18° SSE visible
27 Jun -1.4 18:39:52 10° WSW 18:42:01 16° SSW 18:42:01 16° SSW visible
